Find Starlink 31518

NORAD ID: 59219 Int'l Des: 2024-046 Owner: SPXS Country: US Constellation: starlink operational
LEOCIRCULAR

实时位置

正在加载3D地球...

关于 Starlink 31518

正在加载描述...

即将过境

Passes for default location (London). Set your location on the main map for personalized predictions.

高度历史

Loading altitude history...

两行轨道根数

1 59219U 24046U 26121.78622639 .00000454 00000-0 24560-4 0 9991
2 59219 53.1619 268.3691 0001022 108.3071 251.8043 15.34391708121179
Epoch: May 1, 2026 • Age: 18 hours

当前状态

高度 481.9 km
速度 7.62 km/s
星下点 -53.26°S, 119.37°E
发射日期 Mar 11, 2024
运行时间 2.1 years
类型 internet

技术详情

分类 Payload
质量 730.00 kg
干质量 700.00 kg
总质量 730.00 kg
长度 0.30 m
直径 4.10 m
跨度 29.00 m
形状 Box + pan
制造商 SPXS
平台类型 Starlink V2M
阶段状态 In Orbit
所有者/国家 SPXS/US

Most Searched